Location: Franzen
(48.6167°N, 15.3833°E)
Time: 10:07:57
(UTC+00:00)

OBJECT-B - Pass Details

Date: 22 April 2021
Orbit: 415 x 424 km, 97.0° (Epoch: 25 April)

Event Time Altitude Azimuth Distance (km) Brightness Sun altitude
Rises 19:54:11 0° 215° (SW) 2,361 4.5 -16.8°
Reaches altitude 10° 19:57:29 10° 253° (WSW) 1,508 3.9 -17.2°
Maximum altitude 19:58:27 11° 271° (W) 1,449 4.1 -17.3°
Drops below altitude 10° 19:59:26 10° 289° (WNW) 1,514 4.6 -17.4°
Sets 20:02:47 0° 327° (NNW) 2,390 6.2 -17.8°
